Other Public Products
Issued by NWS Charleston, SC

Current Version | Previous Version | Graphics & Text | Print | Product List | Glossary On
Versions: 1 2 3 4 5 6 7 8 9 10 11 12 13 14 15 16 17 18 19 20 21 22 23 24 25 26 27 28 29 30 31 32 33 34 35 36 37 38 39 40 41 42 43 44 45 46 47 48 49 50
410
FPUS82 KCHS 151627
OPUCHS

TEST...KCHS/KSAV Gateway Observations...TEST
National Weather Service Charleston SC
1100 AM EST FRI DEC 15 2017

NOTE: "fair" indicates few or no clouds below 12,000 feet with no
significant weather and/or obstructions to visibility.

SCZ050-WAZ558-NCZ071-TXZ119-213-PAZ071-DCZ001-FLZ074-172-MI076-
NYZ176-178-MAZ016-IL014-TNZ027-NJZ106-GAZ044-MD014-151700-

...Gateway Observations for Charleston International...

CITY           SKY/WX    TMP DP  RH WIND       PRES   REMARKS
Chas Airport   PTSUNNY   60  40  47 W9        30.02F
Seattle        CLOUDY    39  35  86 SE12      30.17F WCI  32
Charlotte      PTSUNNY   44  28  53 N3        30.00R
Dallas DFW     MOSUNNY   47  32  56 N10       30.33R
Dallas Love    MOSUNNY   46  33  60 N8        30.33R
Philladelphia  CLOUDY    28  10  46 SE3       30.09F
Wash National  CLOUDY    31  13  47 E5        30.06F WCI  26
Baltimore      CLOUDY    29  13  51 E5        30.06F WCI  24
Miami          PTSUNNY   74  58  57 S9        30.13S
Detroit        LGT SNOW  27  18  69 SW17      29.87F WCI  14
Newark         CLOUDY    25  10  53 CALM      30.09F
Laguardia      CLOUDY    27  13  55 NW6       30.09F WCI  20
J F K          CLOUDY    27  13  55 CALM      30.11F
Boston Logan   CLOUDY    24  10  55 SW5       30.09F WCI  18
Ft. Lauderdale PTSUNNY   73  58  59 S10       30.12S
Chicago O`Hare PTSUNNY   28  15  58 W12       29.92S WCI  18
Chicago Midway FLURRIES  29  15  56 NW13      29.94S WCI  19
Houston Bush   CLOUDY    49  35  58 NE10      30.30R
Houston Hobby  CLOUDY    50  35  56 N13       30.29R
Nashville      CLOUDY    34  21  59 NW9       30.20R WCI  27
Atlanta        PTSUNNY   42  30  62 W9        30.07R

$$

GAZ044-118-TXZ119-213-NCZ071-DCZ001-MDZ014-506-PAZ021-071-NJZ106-
NYZ176-178-MAZ106-OHZ011-021-055-MIZ076-KYZ091-ILZ014-INZ047-
MNZ060-ONZ431-151700-

...Gateway Observations for Savannah International...

CITY           SKY/WX    TMP DP  RH WIND       PRES   REMARKS
Savannah Arpt  PTSUNNY   60  42  51 W8        30.05S
Atlanta        PTSUNNY   42  30  62 W9        30.07R
Charlotte      PTSUNNY   44  28  53 N3        30.00R
Dallas DFW     MOSUNNY   47  32  56 N10       30.33R
Houston Bush   CLOUDY    49  35  58 NE10      30.30R
Wash National  CLOUDY    31  13  47 E5        30.06F WCI  26
Wash Dulles    CLOUDY    29  15  56 E6        30.04F WCI  23
Baltimore      CLOUDY    29  13  51 E5        30.06F WCI  24
Philadelphia   CLOUDY    28  10  46 SE3       30.09F
Newark         CLOUDY    25  10  53 CALM      30.09F
Laguardia      CLOUDY    27  13  55 NW6       30.09F WCI  20
J F K          CLOUDY    27  13  55 CALM      30.11F
Boston         CLOUDY    24  10  55 SW5       30.09F WCI  18
Pittsburg      PTSUNNY   23  14  68 W7        29.94S WCI  15
Akron          CLOUDY    19  11  70 SW7       29.93S WCI  10
Cleveland      CLOUDY    21  11  65 S15       29.95F WCI   8
Cincinnati     CLOUDY    27  20  75 SW8       30.04R WCI  19
Columbus       CLOUDY    26  19  73 SW10G16   30.00F WCI  17
Detroit        LGT SNOW  27  18  69 SW17      29.87F WCI  14
Chicago O`Hare PTSUNNY   28  15  58 W12       29.92S WCI  18
Minneapolis    CLOUDY    25  21  85 NE6       29.88F WCI  18
Indianapolis   CLOUDY    28  18  66 SW16      30.02S WCI  16
Toronto Canada CLOUDY    21  12  68 SW12      29.87F WCI   9

$$




USA.gov is the U.S. government's official web portal to all federal, state and local government web resources and services.